CAPE
0 0 0 0 0 0 0 0 0 0 0 0 0 0 0 0 0 0 0 0 0 0 0 0 0 0 0 0 0 0 0 0
0 0 0 0 0 0 0 0 0 0 0 0 0 0 0 0 0 0 0 0 0 0 0 0 0 0 0 0 0 0 0 0
0 0 0 0 0 0 0 0 0 0 0 0 0 0 0 0 0 0 0 0 0 0 0 0 0 0 0 0 0 0 0 0
0 0 0 0 0 0 0 0 0 0 0 0 0 0 0 0 0 0 0 0 0 0 0 0 0 3 4 7 3 2 1 0
0 0 0 0 0 0 0 0 0 0 0 0 0 0 0 0 0 0 0 0 0 0 0 0 1 2 2 6 5 11 2 5
0 0 0 0 0 0 0 0 0 0 0 0 0 0 0 0 0 0 0 0 0 0 0 0 0 0 0 1 4 4 7 6
0 0 0 0 0 0 0 0 0 0 0 0 0 0 0 0 0 0 0 0 0 0 0 0 0 0 0 0 0 0 0 1
0 0 0 0 0 0 0 0 0 0 0 0 0 0 0 0 0 0 0 0 0 0 0 0 0 0 0 0 0 0 0 0
0 0 0 0 0 0 0 0 0 0 0 0 0 0 0 0 0 0 0 0 0 0 4 4 3 2 1 0 0 0 2 1
0 0 0 0 0 0 0 0 0 0 0 0 0 0 0 0 0 0 0 0 0 0 3 5 5 6 6 6 3 3 1 2
0 0 0 0 0 0 0 0 0 0 0 0 0 0 0 0 0 0 0 0 0 0 4 7 3 2 2 2 1 0 0 2
0 0 0 0 0 0 0 0 0 0 0 0 0 0 0 0 0 0 0 0 0 0 1 3 6 3 0 2 1 0 1 5
0 0 0 0 0 0 0 0 0 0 0 0 0 0 0 0 0 0 0 0 0 0 0 0 3 4 2 2 0 0 0 4
0 0 0 0 0 0 0 0 0 0 12 0 0 0 0 0 0 0 0 0 0 0 0 0 0 0 2 7 4 1 2 2
0 0 0 0 0 0 0 0 0 0 0 0 0 0 1 3 1 0 0 0 0 0 0 0 0 0 0 0 1 2 3 2
0 0 0 0 0 0 0 0 0 0 0 0 0 1 2 3 5 7 10 13 5 1 0 0 0 0 0 0 0 0 1 2
0 0 0 0 0 0 0 0 0 0 0 0 1 1 1 2 2 2 1 1 8 11 20 7 1 0 0 0 0 0 0 0
0 0 0 0 0 0 0 0 0 0 0 0 0 0 0 0 0 0 2 3 7 9 1 5 3 6 1 0 0 0 0 0
0 0 0 0 0 0 0 0 0 0 0 0 0 0 0 0 0 0 0 0 2 14 13 22 23 4 0 0 0 0 0 1
CIN
0 0 0 0 0 0 0 0 0 0 0 0 0 0 0 0 0 0 0 0 0 0 0 0 0 0 0 0 0 0 0 0
0 0 0 0 0 0 0 0 0 0 0 0 0 0 0 0 0 0 0 0 0 0 0 0 0 0 0 0 0 0 0 0
0 0 0 0 0 0 0 0 0 0 0 0 0 0 0 0 0 0 0 0 0 0 0 0 0 0 0 0 0 0 0 0
0 0 0 0 0 0 0 0 0 0 0 0 0 0 0 0 0 0 0 0 0 0 0 0 0 -1 -1 -1 -1 -1 0 0
0 0 0 0 0 0 0 0 0 0 0 0 0 0 0 0 0 0 0 0 0 0 0 0 -1 -1 -1 0 -1 0 -4 0
0 0 0 0 0 0 0 0 0 0 0 0 0 0 0 0 0 0 0 0 0 0 0 0 -1 0 0 -1 0 0 0 0
0 0 0 0 0 0 0 0 0 0 0 0 0 0 0 0 0 0 0 0 0 0 0 0 0 0 0 0 0 0 0 -1
0 0 0 0 0 0 0 0 0 0 0 0 0 0 0 0 0 0 0 0 0 0 -1 0 0 0 0 0 0 0 0 0
0 0 0 0 0 0 0 0 0 0 0 0 0 0 0 0 0 0 0 0 0 -1 -1 0 -1 0 -1 -1 0 0 0 -1
0 0 0 0 0 0 0 0 0 0 0 0 0 0 0 0 0 0 0 0 0 0 -1 0 -1 -1 0 -1 0 0 0 0
0 0 0 0 0 0 0 0 0 0 0 0 0 0 0 0 0 0 0 0 0 0 -1 0 -1 -2 -2 -1 -2 -2 -1 -1
0 0 0 0 0 0 0 0 0 0 0 0 0 0 0 0 0 0 0 0 0 0 -1 -1 -1 -1 -2 -2 -1 -2 -2 -1
0 0 0 0 0 0 0 0 0 0 -4 -2 0 0 0 0 0 0 0 0 0 0 0 0 0 -1 -2 -1 0 -3 -3 -1
0 0 0 0 0 0 0 0 0 -1 -3 0 0 0 0 0 0 0 0 0 0 0 0 0 0 0 -1 -1 -1 -2 -2 -1
0 0 0 0 0 0 0 0 0 0 0 0 -1 -1 -1 -2 -1 -1 -1 -1 0 0 0 0 0 0 0 -1 -1 -1 -1 -1
0 0 0 0 0 0 0 0 0 0 0 0 0 -2 -1 -1 -2 -1 -1 -4 -1 -2 -1 0 0 0 0 0 0 0 -1 -2
0 0 0 0 0 0 0 0 0 0 0 -2 -2 -1 -1 -1 -1 -1 -3 -2 -1 -18 -10 -9 -1 -2 0 0 0 0 0 -2
0 0 0 0 0 0 0 0 0 0 0 0 0 0 0 0 0 0 -1 -2 -1 0 0 -1 0 -2 -1 0 0 0 0 -2
0 0 0 0 0 0 0 0 0 0 0 0 0 0 0 0 0 0 0 -1 -2 -1 -1 0 0 0 0 0 0 0 0 -2
Wind_Speed
13 14 13 12 12 12 12 13 14 14 15 16 17 18 19 21 22 23 25 26 27 29 29 31 32 33 33 33 35 35 35 35
9 13 14 16 14 13 12 13 15 16 17 18 19 20 23 24 25 25 26 28 29 29 30 31 33 34 35 35 35 36 35 32
10 9 10 12 14 16 15 15 16 17 19 20 23 22 22 24 26 27 28 29 30 31 32 32 33 35 35 34 35 35 34 31
10 8 8 9 10 11 11 13 12 15 16 17 21 22 24 27 29 30 30 31 30 31 32 33 33 34 34 33 31 31 33 31
12 9 7 7 7 9 10 11 13 14 15 19 23 26 29 30 31 32 33 32 32 33 32 31 32 32 31 31 30 29 29 30
13 10 8 6 6 8 10 11 13 17 21 22 24 28 31 30 32 33 33 33 30 30 29 31 31 31 31 30 29 28 27 27
16 14 9 8 7 9 10 10 16 16 18 19 22 25 27 29 30 32 32 31 32 30 31 31 31 30 29 29 28 27 27 27
21 17 13 11 10 11 11 13 15 16 17 20 23 26 29 31 31 32 33 32 31 30 29 30 29 28 28 28 28 28 27 27
26 21 16 13 12 12 12 13 14 15 17 23 25 28 30 29 30 32 33 32 32 31 30 29 28 28 29 28 29 29 28 27
30 23 17 12 10 11 11 12 13 15 17 24 27 30 28 29 32 33 33 33 33 32 31 30 29 28 28 28 29 29 29 28
33 30 23 16 10 9 9 10 12 13 20 26 30 31 27 28 30 32 33 34 33 32 31 30 29 30 30 30 31 30 30 30
35 34 29 21 13 10 9 10 11 16 23 28 37 29 25 28 31 33 34 35 34 33 33 33 32 32 31 32 32 32 33 33
35 34 30 24 18 13 11 11 15 22 29 35 34 32 28 31 33 34 34 35 35 34 34 34 34 34 33 33 34 33 34 34
34 33 30 26 21 17 16 16 21 28 36 34 32 31 31 34 37 38 38 37 37 36 35 35 36 35 35 35 35 35 35 35
33 32 30 27 25 25 26 28 30 32 33 34 37 36 37 39 40 41 40 39 39 39 38 38 38 38 37 36 35 36 36 35
31 31 30 29 29 29 29 30 32 35 35 36 37 38 39 42 43 43 43 43 42 42 42 41 40 39 38 36 36 37 36 36
30 29 29 30 31 31 31 32 34 35 35 37 38 40 41 42 44 45 45 45 45 45 45 43 43 40 38 36 35 38 38 38
29 29 30 31 33 33 34 35 36 37 38 39 40 42 44 45 45 47 48 48 48 47 47 48 47 45 41 37 35 36 37 36
28 29 31 31 33 35 35 36 37 39 40 42 43 44 45 46 46 47 47 48 49 49 50 49 47 45 45 41 35 34 35 35
Wind_Direction
326 318 322 330 329 329 328 325 326 328 328 327 326 326 327 326 330 327 324 323 320 318 315 313 313 311 310 310 307 306 306 306
339 322 316 310 314 316 320 317 314 315 318 319 320 319 317 322 321 327 323 320 322 322 319 317 315 312 311 310 310 307 307 308
347 336 326 317 309 306 308 311 311 315 315 316 318 321 323 322 321 320 320 322 318 319 318 318 317 314 312 311 309 308 308 309
1 345 329 321 313 311 313 316 323 322 323 326 324 324 320 318 318 317 317 318 320 320 321 317 316 315 312 312 312 311 309 309
351 345 331 318 310 311 314 318 320 325 328 325 322 321 315 319 320 318 314 315 314 318 320 321 320 317 317 316 314 313 312 310
355 346 333 317 307 304 307 310 314 317 318 321 320 319 318 314 318 320 317 315 318 320 322 322 319 320 317 315 316 315 314 312
351 344 333 315 308 301 300 300 310 317 322 325 327 327 325 325 321 317 317 317 316 316 317 319 320 321 321 319 318 316 313 311
347 339 328 309 300 295 294 300 308 315 320 325 325 324 321 317 318 318 318 319 318 318 321 320 320 321 320 319 317 314 313 310
345 339 330 314 301 295 292 298 304 312 318 320 322 322 319 315 317 317 317 318 318 318 318 318 319 319 318 316 314 313 311 309
345 346 339 322 299 293 290 297 304 312 319 323 324 324 318 316 315 317 319 319 318 318 317 316 315 316 315 314 312 309 308 306
342 343 341 335 314 298 294 298 306 314 321 324 323 320 316 316 318 319 319 319 319 317 316 314 312 311 311 311 310 308 306 304
342 342 340 339 333 315 311 307 308 315 321 322 321 318 315 316 315 316 317 318 317 315 314 312 311 310 309 308 307 306 303 302
345 349 349 349 345 338 326 318 313 318 320 319 320 316 312 312 313 315 317 317 317 315 313 311 309 308 307 305 305 304 303 301
349 352 355 358 358 354 344 336 324 317 317 317 316 314 311 312 313 314 315 315 314 314 312 310 309 307 305 303 302 302 301 300
350 351 354 357 355 348 337 332 329 326 324 321 317 315 314 314 313 312 312 311 311 310 309 308 307 306 305 303 302 300 299 298
351 352 354 355 353 349 345 341 335 331 328 326 323 320 317 316 315 313 312 310 308 308 307 306 305 304 303 303 302 301 299 296
349 352 353 351 350 348 345 342 340 338 335 332 329 326 323 321 319 317 315 312 310 308 306 303 302 301 301 299 299 300 299 296
351 351 351 350 347 346 343 342 340 338 335 333 331 328 325 323 321 319 317 315 312 309 307 305 301 299 298 295 293 296 297 296
351 351 349 349 348 345 343 342 340 338 336 334 332 330 328 327 325 323 321 318 315 312 309 305 302 300 298 292 286 289 292 294